Regional Weather Roundup
Issued by NWS

Home | Current Version | Previous Version | Text Only | Print | Product List | Glossary On
Versions: 1 2 3 4 5 6 7 8 9 10 11 12 13 14 15 16 17 18 19 20 21 22 23 24 25 26 27 28 29 30 31 32 33 34 35 36 37 38 39
000
ASUS45 KCYS 251310
RWRWY

WYOMING REGIONAL WEATHER ROUNDUP
NATIONAL WEATHER SERVICE CHEYENNE WY
700 AM MDT WED MAY 25 2022

NOTE:  "FAIR" INDICATES FEW OR NO CLOUDS BELOW 12,000 FEET
WITH NO SIGNIFICANT WEATHER AND/OR OBSTRUCTIONS TO VISIBILITY.

WYZ001-251400-
YELLOWSTONE NATIONAL PARK

CITY           SKY/WX    TMP DP  RH WIND       PRES   REMARKS
LK YELLOWSTONE   N/A     29  27  92 CALM      30.17R
W YELLOWSTONE  NOT AVBL

$$
WYZ002>013-054>058-071-098>099-251400-
NORTHERN WYOMING

CITY           SKY/WX    TMP DP  RH WIND       PRES   REMARKS
JACKSON        CLOUDY    32  28  85 N3        30.17R
CODY           CLOUDY    42  34  73 CALM      30.06R
GREYBULL       FAIR      40  36  86 CALM      30.05S
WORLAND        FAIR      39  34  82 CALM      30.06R
SHERIDAN       FAIR      42  31  64 CALM      30.01R
BUFFALO        FAIR      48  29  47 SW7       30.04R
GILLETTE       FAIR      46  38  73 SE6       30.04R
HULETT         FAIR      45  39  81 CALM      30.05S
NEWCASTLE      FAIR      43  36  75 CALM      30.07R

$$
WYZ014>020-022>026-101>103-251400-
CENTRAL WYOMING

CITY           SKY/WX    TMP DP  RH WIND       PRES   REMARKS
BIG PINEY      CLOUDY    30  22  72 CALM      30.18R
PINEDALE       CLOUDY    28  23  80 W5        30.19R WCI  23
DUBOIS         CLOUDY    34  25  69 W16       30.12  WCI  23
LANDER         PTSUNNY   37  34  89 E5        30.10R WCI  33
RIVERTON       FAIR      42  32  67 W5        30.09S
CASPER         FAIR      39  36  89 W7        30.09R WCI  34
DOUGLAS        FAIR      39  36  89 NW6       30.09R WCI  35

$$
WYZ021-027>030-104>119-251400-
SOUTHERN WYOMING

CITY           SKY/WX    TMP DP  RH WIND       PRES   REMARKS
EVANSTON       FAIR      35  22  58 SE6       30.19R WCI  30
KEMMERER       FAIR      30  25  80 NW13      30.18S WCI  20
ROCK SPRINGS   FAIR      35  29  78 W5        30.18R WCI  31
DIXON          FAIR      33  33  97 SE8       30.20S WCI  26
RAWLINS        FAIR      33  29  85 CALM      30.16R
SARATOGA       FAIR      34  34 100 SE3       30.18R
LARAMIE        FAIR      29  29 100 CALM      30.14R
CHEYENNE       FAIR      41  33  73 NW7       30.09R
TORRINGTON     FAIR      39  36  89 MISG      30.06R
PINE BLUFFS    FAIR      37  36  93 CALM      30.09R

$$



USA.gov is the U.S. government's official web portal to all federal, state and local government web resources and services.